<?xml version="1.0"?>
<gpx xmlns="http://www.topografix.com/GPX/1/1" xmlns:xsi="http://www.w3.org/2001/XMLSchema-instance" version="1.1" creator="GPX RubyGem 1.0.0 -- http://dougfales.github.io/gpx/" xsi:schemaLocation="http://www.topografix.com/GPX/1/1 http://www.topografix.com/GPX/1/1/gpx.xsd">
  <metadata>
    <name/>
    <time>2026-05-08T10:03:56+00:00</time>
    <bound minlat="90.0" minlon="180.0" maxlat="-90.0" maxlon="-180.0"/>
  </metadata>
  <trk>
    <name/>
    <trkseg>
      <trkpt lat="44.970636" lon="6.499204">
        <time>1970-01-01T00:00:00+00:00</time>
        <ele>1514.0</ele>
      </trkpt>
      <trkpt lat="44.970548" lon="6.4987">
        <time>1970-01-01T00:00:00+00:00</time>
        <ele>1520.0</ele>
      </trkpt>
      <trkpt lat="44.970596" lon="6.497918">
        <time>1970-01-01T00:00:00+00:00</time>
        <ele>1520.0</ele>
      </trkpt>
      <trkpt lat="44.970441" lon="6.497156">
        <time>1970-01-01T00:00:00+00:00</time>
        <ele>1525.0</ele>
      </trkpt>
      <trkpt lat="44.970444" lon="6.496634">
        <time>1970-01-01T00:00:00+00:00</time>
        <ele>1528.0</ele>
      </trkpt>
      <trkpt lat="44.970368" lon="6.495857">
        <time>1970-01-01T00:00:00+00:00</time>
        <ele>1538.0</ele>
      </trkpt>
      <trkpt lat="44.970187" lon="6.495403">
        <time>1970-01-01T00:00:00+00:00</time>
        <ele>1548.0</ele>
      </trkpt>
      <trkpt lat="44.970102" lon="6.494866">
        <time>1970-01-01T00:00:00+00:00</time>
        <ele>1556.0</ele>
      </trkpt>
      <trkpt lat="44.969764" lon="6.49426">
        <time>1970-01-01T00:00:00+00:00</time>
        <ele>1569.0</ele>
      </trkpt>
      <trkpt lat="44.969777" lon="6.493999">
        <time>1970-01-01T00:00:00+00:00</time>
        <ele>1565.0</ele>
      </trkpt>
      <trkpt lat="44.969658" lon="6.493801">
        <time>1970-01-01T00:00:00+00:00</time>
        <ele>1567.0</ele>
      </trkpt>
      <trkpt lat="44.969348" lon="6.493522">
        <time>1970-01-01T00:00:00+00:00</time>
        <ele>1572.0</ele>
      </trkpt>
      <trkpt lat="44.968658" lon="6.493144">
        <time>1970-01-01T00:00:00+00:00</time>
        <ele>1583.0</ele>
      </trkpt>
      <trkpt lat="44.968299" lon="6.493202">
        <time>1970-01-01T00:00:00+00:00</time>
        <ele>1590.0</ele>
      </trkpt>
      <trkpt lat="44.967954" lon="6.493019">
        <time>1970-01-01T00:00:00+00:00</time>
        <ele>1600.0</ele>
      </trkpt>
      <trkpt lat="44.967589" lon="6.493038">
        <time>1970-01-01T00:00:00+00:00</time>
        <ele>1613.0</ele>
      </trkpt>
      <trkpt lat="44.967056" lon="6.49321">
        <time>1970-01-01T00:00:00+00:00</time>
        <ele>1630.0</ele>
      </trkpt>
      <trkpt lat="44.966693" lon="6.493222">
        <time>1970-01-01T00:00:00+00:00</time>
        <ele>1642.0</ele>
      </trkpt>
      <trkpt lat="44.966009" lon="6.492863">
        <time>1970-01-01T00:00:00+00:00</time>
        <ele>1655.0</ele>
      </trkpt>
      <trkpt lat="44.96529" lon="6.49273">
        <time>1970-01-01T00:00:00+00:00</time>
        <ele>1674.0</ele>
      </trkpt>
      <trkpt lat="44.964617" lon="6.492277">
        <time>1970-01-01T00:00:00+00:00</time>
        <ele>1688.0</ele>
      </trkpt>
      <trkpt lat="44.964256" lon="6.492179">
        <time>1970-01-01T00:00:00+00:00</time>
        <ele>1694.0</ele>
      </trkpt>
      <trkpt lat="44.963754" lon="6.491862">
        <time>1970-01-01T00:00:00+00:00</time>
        <ele>1701.0</ele>
      </trkpt>
      <trkpt lat="44.962665" lon="6.491636">
        <time>1970-01-01T00:00:00+00:00</time>
        <ele>1731.0</ele>
      </trkpt>
      <trkpt lat="44.962404" lon="6.491283">
        <time>1970-01-01T00:00:00+00:00</time>
        <ele>1734.0</ele>
      </trkpt>
      <trkpt lat="44.962451" lon="6.491031">
        <time>1970-01-01T00:00:00+00:00</time>
        <ele>1726.0</ele>
      </trkpt>
      <trkpt lat="44.96238" lon="6.490792">
        <time>1970-01-01T00:00:00+00:00</time>
        <ele>1722.0</ele>
      </trkpt>
      <trkpt lat="44.962018" lon="6.490205">
        <time>1970-01-01T00:00:00+00:00</time>
        <ele>1716.0</ele>
      </trkpt>
      <trkpt lat="44.96148" lon="6.489506">
        <time>1970-01-01T00:00:00+00:00</time>
        <ele>1715.0</ele>
      </trkpt>
      <trkpt lat="44.961203" lon="6.48918">
        <time>1970-01-01T00:00:00+00:00</time>
        <ele>1717.0</ele>
      </trkpt>
      <trkpt lat="44.960828" lon="6.489031">
        <time>1970-01-01T00:00:00+00:00</time>
        <ele>1732.0</ele>
      </trkpt>
      <trkpt lat="44.960502" lon="6.488764">
        <time>1970-01-01T00:00:00+00:00</time>
        <ele>1740.0</ele>
      </trkpt>
      <trkpt lat="44.960082" lon="6.488254">
        <time>1970-01-01T00:00:00+00:00</time>
        <ele>1745.0</ele>
      </trkpt>
      <trkpt lat="44.959759" lon="6.487996">
        <time>1970-01-01T00:00:00+00:00</time>
        <ele>1759.0</ele>
      </trkpt>
      <trkpt lat="44.959233" lon="6.486981">
        <time>1970-01-01T00:00:00+00:00</time>
        <ele>1762.0</ele>
      </trkpt>
      <trkpt lat="44.959068" lon="6.486855">
        <time>1970-01-01T00:00:00+00:00</time>
        <ele>1771.0</ele>
      </trkpt>
      <trkpt lat="44.958506" lon="6.485516">
        <time>1970-01-01T00:00:00+00:00</time>
        <ele>1776.0</ele>
      </trkpt>
      <trkpt lat="44.957945" lon="6.484809">
        <time>1970-01-01T00:00:00+00:00</time>
        <ele>1787.0</ele>
      </trkpt>
      <trkpt lat="44.957483" lon="6.484379">
        <time>1970-01-01T00:00:00+00:00</time>
        <ele>1806.0</ele>
      </trkpt>
      <trkpt lat="44.957233" lon="6.483991">
        <time>1970-01-01T00:00:00+00:00</time>
        <ele>1816.0</ele>
      </trkpt>
      <trkpt lat="44.956892" lon="6.483069">
        <time>1970-01-01T00:00:00+00:00</time>
        <ele>1824.0</ele>
      </trkpt>
      <trkpt lat="44.956805" lon="6.482551">
        <time>1970-01-01T00:00:00+00:00</time>
        <ele>1826.0</ele>
      </trkpt>
      <trkpt lat="44.956382" lon="6.48206">
        <time>1970-01-01T00:00:00+00:00</time>
        <ele>1836.0</ele>
      </trkpt>
      <trkpt lat="44.956066" lon="6.481433">
        <time>1970-01-01T00:00:00+00:00</time>
        <ele>1843.0</ele>
      </trkpt>
      <trkpt lat="44.955595" lon="6.480983">
        <time>1970-01-01T00:00:00+00:00</time>
        <ele>1852.0</ele>
      </trkpt>
      <trkpt lat="44.954885" lon="6.480662">
        <time>1970-01-01T00:00:00+00:00</time>
        <ele>1865.0</ele>
      </trkpt>
      <trkpt lat="44.95458" lon="6.480348">
        <time>1970-01-01T00:00:00+00:00</time>
        <ele>1868.0</ele>
      </trkpt>
      <trkpt lat="44.954245" lon="6.480119">
        <time>1970-01-01T00:00:00+00:00</time>
        <ele>1873.0</ele>
      </trkpt>
      <trkpt lat="44.953823" lon="6.479587">
        <time>1970-01-01T00:00:00+00:00</time>
        <ele>1879.0</ele>
      </trkpt>
      <trkpt lat="44.953661" lon="6.479469">
        <time>1970-01-01T00:00:00+00:00</time>
        <ele>1882.0</ele>
      </trkpt>
      <trkpt lat="44.95195" lon="6.478552">
        <time>1970-01-01T00:00:00+00:00</time>
        <ele>1915.0</ele>
      </trkpt>
      <trkpt lat="44.950967" lon="6.477397">
        <time>1970-01-01T00:00:00+00:00</time>
        <ele>1937.0</ele>
      </trkpt>
      <trkpt lat="44.950891" lon="6.477163">
        <time>1970-01-01T00:00:00+00:00</time>
        <ele>1940.0</ele>
      </trkpt>
      <trkpt lat="44.95062" lon="6.476821">
        <time>1970-01-01T00:00:00+00:00</time>
        <ele>1948.0</ele>
      </trkpt>
      <trkpt lat="44.950448" lon="6.47636">
        <time>1970-01-01T00:00:00+00:00</time>
        <ele>1954.0</ele>
      </trkpt>
      <trkpt lat="44.950224" lon="6.47596">
        <time>1970-01-01T00:00:00+00:00</time>
        <ele>1960.0</ele>
      </trkpt>
      <trkpt lat="44.949272" lon="6.474393">
        <time>1970-01-01T00:00:00+00:00</time>
        <ele>1991.0</ele>
      </trkpt>
      <trkpt lat="44.9484" lon="6.473461">
        <time>1970-01-01T00:00:00+00:00</time>
        <ele>2016.0</ele>
      </trkpt>
      <trkpt lat="44.947702" lon="6.473137">
        <time>1970-01-01T00:00:00+00:00</time>
        <ele>2034.0</ele>
      </trkpt>
      <trkpt lat="44.94697" lon="6.473076">
        <time>1970-01-01T00:00:00+00:00</time>
        <ele>2051.0</ele>
      </trkpt>
      <trkpt lat="44.946814" lon="6.472932">
        <time>1970-01-01T00:00:00+00:00</time>
        <ele>2055.0</ele>
      </trkpt>
      <trkpt lat="44.946631" lon="6.472203">
        <time>1970-01-01T00:00:00+00:00</time>
        <ele>2067.0</ele>
      </trkpt>
      <trkpt lat="44.946621" lon="6.471176">
        <time>1970-01-01T00:00:00+00:00</time>
        <ele>2086.0</ele>
      </trkpt>
      <trkpt lat="44.946482" lon="6.470679">
        <time>1970-01-01T00:00:00+00:00</time>
        <ele>2095.0</ele>
      </trkpt>
      <trkpt lat="44.946475" lon="6.470415">
        <time>1970-01-01T00:00:00+00:00</time>
        <ele>2100.0</ele>
      </trkpt>
      <trkpt lat="44.946381" lon="6.470176">
        <time>1970-01-01T00:00:00+00:00</time>
        <ele>2104.0</ele>
      </trkpt>
      <trkpt lat="44.946317" lon="6.469668">
        <time>1970-01-01T00:00:00+00:00</time>
        <ele>2115.0</ele>
      </trkpt>
      <trkpt lat="44.946035" lon="6.468998">
        <time>1970-01-01T00:00:00+00:00</time>
        <ele>2129.0</ele>
      </trkpt>
      <trkpt lat="44.946029" lon="6.46874">
        <time>1970-01-01T00:00:00+00:00</time>
        <ele>2134.0</ele>
      </trkpt>
      <trkpt lat="44.945935" lon="6.468523">
        <time>1970-01-01T00:00:00+00:00</time>
        <ele>2140.0</ele>
      </trkpt>
      <trkpt lat="44.945947" lon="6.468254">
        <time>1970-01-01T00:00:00+00:00</time>
        <ele>2144.0</ele>
      </trkpt>
      <trkpt lat="44.945604" lon="6.467329">
        <time>1970-01-01T00:00:00+00:00</time>
        <ele>2166.0</ele>
      </trkpt>
      <trkpt lat="44.945601" lon="6.466549">
        <time>1970-01-01T00:00:00+00:00</time>
        <ele>2182.0</ele>
      </trkpt>
      <trkpt lat="44.945271" lon="6.465047">
        <time>1970-01-01T00:00:00+00:00</time>
        <ele>2217.0</ele>
      </trkpt>
      <trkpt lat="44.945224" lon="6.464273">
        <time>1970-01-01T00:00:00+00:00</time>
        <ele>2235.0</ele>
      </trkpt>
      <trkpt lat="44.945032" lon="6.463827">
        <time>1970-01-01T00:00:00+00:00</time>
        <ele>2247.0</ele>
      </trkpt>
      <trkpt lat="44.945083" lon="6.463312">
        <time>1970-01-01T00:00:00+00:00</time>
        <ele>2259.0</ele>
      </trkpt>
      <trkpt lat="44.945027" lon="6.463067">
        <time>1970-01-01T00:00:00+00:00</time>
        <ele>2266.0</ele>
      </trkpt>
      <trkpt lat="44.945225" lon="6.462357">
        <time>1970-01-01T00:00:00+00:00</time>
        <ele>2281.0</ele>
      </trkpt>
      <trkpt lat="44.945173" lon="6.461579">
        <time>1970-01-01T00:00:00+00:00</time>
        <ele>2304.0</ele>
      </trkpt>
      <trkpt lat="44.945047" lon="6.460803">
        <time>1970-01-01T00:00:00+00:00</time>
        <ele>2329.0</ele>
      </trkpt>
      <trkpt lat="44.944833" lon="6.460393">
        <time>1970-01-01T00:00:00+00:00</time>
        <ele>2348.0</ele>
      </trkpt>
      <trkpt lat="44.944653" lon="6.460417">
        <time>1970-01-01T00:00:00+00:00</time>
        <ele>2355.0</ele>
      </trkpt>
      <trkpt lat="44.94461" lon="6.460164">
        <time>1970-01-01T00:00:00+00:00</time>
        <ele>2361.0</ele>
      </trkpt>
      <trkpt lat="44.944447" lon="6.460049">
        <time>1970-01-01T00:00:00+00:00</time>
        <ele>2371.0</ele>
      </trkpt>
      <trkpt lat="44.944334" lon="6.458757">
        <time>1970-01-01T00:00:00+00:00</time>
        <ele>2398.0</ele>
      </trkpt>
      <trkpt lat="44.944078" lon="6.45778">
        <time>1970-01-01T00:00:00+00:00</time>
        <ele>2419.0</ele>
      </trkpt>
      <trkpt lat="44.944008" lon="6.457017">
        <time>1970-01-01T00:00:00+00:00</time>
        <ele>2429.0</ele>
      </trkpt>
      <trkpt lat="44.944089" lon="6.456786">
        <time>1970-01-01T00:00:00+00:00</time>
        <ele>2432.0</ele>
      </trkpt>
      <trkpt lat="44.944164" lon="6.456016">
        <time>1970-01-01T00:00:00+00:00</time>
        <ele>2448.0</ele>
      </trkpt>
      <trkpt lat="44.944142" lon="6.455244">
        <time>1970-01-01T00:00:00+00:00</time>
        <ele>2465.0</ele>
      </trkpt>
      <trkpt lat="44.944069" lon="6.454743">
        <time>1970-01-01T00:00:00+00:00</time>
        <ele>2478.0</ele>
      </trkpt>
      <trkpt lat="44.944099" lon="6.454489">
        <time>1970-01-01T00:00:00+00:00</time>
        <ele>2483.0</ele>
      </trkpt>
      <trkpt lat="44.94398" lon="6.454291">
        <time>1970-01-01T00:00:00+00:00</time>
        <ele>2488.0</ele>
      </trkpt>
      <trkpt lat="44.94394" lon="6.454036">
        <time>1970-01-01T00:00:00+00:00</time>
        <ele>2494.0</ele>
      </trkpt>
      <trkpt lat="44.943733" lon="6.453602">
        <time>1970-01-01T00:00:00+00:00</time>
        <ele>2508.0</ele>
      </trkpt>
      <trkpt lat="44.943783" lon="6.453355">
        <time>1970-01-01T00:00:00+00:00</time>
        <ele>2515.0</ele>
      </trkpt>
      <trkpt lat="44.943632" lon="6.453215">
        <time>1970-01-01T00:00:00+00:00</time>
        <ele>2521.0</ele>
      </trkpt>
      <trkpt lat="44.943632" lon="6.452959">
        <time>1970-01-01T00:00:00+00:00</time>
        <ele>2527.0</ele>
      </trkpt>
      <trkpt lat="44.94347" lon="6.4525">
        <time>1970-01-01T00:00:00+00:00</time>
        <ele>2541.0</ele>
      </trkpt>
      <trkpt lat="44.943761" lon="6.452196">
        <time>1970-01-01T00:00:00+00:00</time>
        <ele>2553.0</ele>
      </trkpt>
      <trkpt lat="44.943566" lon="6.451763">
        <time>1970-01-01T00:00:00+00:00</time>
        <ele>2564.0</ele>
      </trkpt>
      <trkpt lat="44.943679" lon="6.451277">
        <time>1970-01-01T00:00:00+00:00</time>
        <ele>2580.0</ele>
      </trkpt>
      <trkpt lat="44.943576" lon="6.451064">
        <time>1970-01-01T00:00:00+00:00</time>
        <ele>2587.0</ele>
      </trkpt>
      <trkpt lat="44.94306" lon="6.450822">
        <time>1970-01-01T00:00:00+00:00</time>
        <ele>2602.0</ele>
      </trkpt>
      <trkpt lat="44.942929" lon="6.450633">
        <time>1970-01-01T00:00:00+00:00</time>
        <ele>2609.0</ele>
      </trkpt>
      <trkpt lat="44.942954" lon="6.450377">
        <time>1970-01-01T00:00:00+00:00</time>
        <ele>2615.0</ele>
      </trkpt>
      <trkpt lat="44.943123" lon="6.449927">
        <time>1970-01-01T00:00:00+00:00</time>
        <ele>2626.0</ele>
      </trkpt>
      <trkpt lat="44.943237" lon="6.44973">
        <time>1970-01-01T00:00:00+00:00</time>
        <ele>2632.0</ele>
      </trkpt>
      <trkpt lat="44.943397" lon="6.449602">
        <time>1970-01-01T00:00:00+00:00</time>
        <ele>2637.0</ele>
      </trkpt>
      <trkpt lat="44.94339" lon="6.449344">
        <time>1970-01-01T00:00:00+00:00</time>
        <ele>2648.0</ele>
      </trkpt>
      <trkpt lat="44.943215" lon="6.449266">
        <time>1970-01-01T00:00:00+00:00</time>
        <ele>2650.0</ele>
      </trkpt>
      <trkpt lat="44.943077" lon="6.449092">
        <time>1970-01-01T00:00:00+00:00</time>
        <ele>2656.0</ele>
      </trkpt>
      <trkpt lat="44.94308" lon="6.448835">
        <time>1970-01-01T00:00:00+00:00</time>
        <ele>2665.0</ele>
      </trkpt>
      <trkpt lat="44.943239" lon="6.448699">
        <time>1970-01-01T00:00:00+00:00</time>
        <ele>2671.0</ele>
      </trkpt>
      <trkpt lat="44.943177" lon="6.448455">
        <time>1970-01-01T00:00:00+00:00</time>
        <ele>2682.0</ele>
      </trkpt>
      <trkpt lat="44.943247" lon="6.448213">
        <time>1970-01-01T00:00:00+00:00</time>
        <ele>2693.0</ele>
      </trkpt>
      <trkpt lat="44.943124" lon="6.448023">
        <time>1970-01-01T00:00:00+00:00</time>
        <ele>2702.0</ele>
      </trkpt>
      <trkpt lat="44.942953" lon="6.447931">
        <time>1970-01-01T00:00:00+00:00</time>
        <ele>2708.0</ele>
      </trkpt>
      <trkpt lat="44.943227" lon="6.447601">
        <time>1970-01-01T00:00:00+00:00</time>
        <ele>2720.0</ele>
      </trkpt>
      <trkpt lat="44.943406" lon="6.447549">
        <time>1970-01-01T00:00:00+00:00</time>
        <ele>2723.0</ele>
      </trkpt>
      <trkpt lat="44.943303" lon="6.447334">
        <time>1970-01-01T00:00:00+00:00</time>
        <ele>2729.0</ele>
      </trkpt>
      <trkpt lat="44.942837" lon="6.446946">
        <time>1970-01-01T00:00:00+00:00</time>
        <ele>2744.0</ele>
      </trkpt>
      <trkpt lat="44.942503" lon="6.445476">
        <time>1970-01-01T00:00:00+00:00</time>
        <ele>2789.0</ele>
      </trkpt>
      <trkpt lat="44.942426" lon="6.44524">
        <time>1970-01-01T00:00:00+00:00</time>
        <ele>2796.0</ele>
      </trkpt>
      <trkpt lat="44.942266" lon="6.44512">
        <time>1970-01-01T00:00:00+00:00</time>
        <ele>2802.0</ele>
      </trkpt>
      <trkpt lat="44.94223" lon="6.444869">
        <time>1970-01-01T00:00:00+00:00</time>
        <ele>2807.0</ele>
      </trkpt>
      <trkpt lat="44.942343" lon="6.444669">
        <time>1970-01-01T00:00:00+00:00</time>
        <ele>2808.0</ele>
      </trkpt>
      <trkpt lat="44.942358" lon="6.444415">
        <time>1970-01-01T00:00:00+00:00</time>
        <ele>2814.0</ele>
      </trkpt>
      <trkpt lat="44.942191" lon="6.444305">
        <time>1970-01-01T00:00:00+00:00</time>
        <ele>2822.0</ele>
      </trkpt>
      <trkpt lat="44.942006" lon="6.444301">
        <time>1970-01-01T00:00:00+00:00</time>
        <ele>2830.0</ele>
      </trkpt>
      <trkpt lat="44.941953" lon="6.444056">
        <time>1970-01-01T00:00:00+00:00</time>
        <ele>2839.0</ele>
      </trkpt>
      <trkpt lat="44.942003" lon="6.44381">
        <time>1970-01-01T00:00:00+00:00</time>
        <ele>2844.0</ele>
      </trkpt>
      <trkpt lat="44.94182" lon="6.44384">
        <time>1970-01-01T00:00:00+00:00</time>
        <ele>2851.0</ele>
      </trkpt>
      <trkpt lat="44.941673" lon="6.443688">
        <time>1970-01-01T00:00:00+00:00</time>
        <ele>2863.0</ele>
      </trkpt>
      <trkpt lat="44.941833" lon="6.443228">
        <time>1970-01-01T00:00:00+00:00</time>
        <ele>2869.0</ele>
      </trkpt>
      <trkpt lat="44.941657" lon="6.443169">
        <time>1970-01-01T00:00:00+00:00</time>
        <ele>2879.0</ele>
      </trkpt>
      <trkpt lat="44.941479" lon="6.443228">
        <time>1970-01-01T00:00:00+00:00</time>
        <ele>2887.0</ele>
      </trkpt>
      <trkpt lat="44.941757" lon="6.442577">
        <time>1970-01-01T00:00:00+00:00</time>
        <ele>2901.0</ele>
      </trkpt>
      <trkpt lat="44.941712" lon="6.442331">
        <time>1970-01-01T00:00:00+00:00</time>
        <ele>2918.0</ele>
      </trkpt>
      <trkpt lat="44.941847" lon="6.442163">
        <time>1970-01-01T00:00:00+00:00</time>
        <ele>2920.0</ele>
      </trkpt>
      <trkpt lat="44.941675" lon="6.442083">
        <time>1970-01-01T00:00:00+00:00</time>
        <ele>2931.0</ele>
      </trkpt>
      <trkpt lat="44.941488" lon="6.442107">
        <time>1970-01-01T00:00:00+00:00</time>
        <ele>2938.0</ele>
      </trkpt>
      <trkpt lat="44.941325" lon="6.441996">
        <time>1970-01-01T00:00:00+00:00</time>
        <ele>2952.0</ele>
      </trkpt>
      <trkpt lat="44.940677" lon="6.44248">
        <time>1970-01-01T00:00:00+00:00</time>
        <ele>2988.0</ele>
      </trkpt>
      <trkpt lat="44.940683" lon="6.442226">
        <time>1970-01-01T00:00:00+00:00</time>
        <ele>2997.0</ele>
      </trkpt>
      <trkpt lat="44.940531" lon="6.442071">
        <time>1970-01-01T00:00:00+00:00</time>
        <ele>3015.0</ele>
      </trkpt>
      <trkpt lat="44.940351" lon="6.442079">
        <time>1970-01-01T00:00:00+00:00</time>
        <ele>3025.0</ele>
      </trkpt>
      <trkpt lat="44.940181" lon="6.442184">
        <time>1970-01-01T00:00:00+00:00</time>
        <ele>3032.0</ele>
      </trkpt>
      <trkpt lat="44.940101" lon="6.441952">
        <time>1970-01-01T00:00:00+00:00</time>
        <ele>3039.0</ele>
      </trkpt>
      <trkpt lat="44.940119" lon="6.440656">
        <time>1970-01-01T00:00:00+00:00</time>
        <ele>3069.0</ele>
      </trkpt>
      <trkpt lat="44.939565" lon="6.440616">
        <time>1970-01-01T00:00:00+00:00</time>
        <ele>3082.0</ele>
      </trkpt>
      <trkpt lat="44.93921" lon="6.440701">
        <time>1970-01-01T00:00:00+00:00</time>
        <ele>3090.0</ele>
      </trkpt>
      <trkpt lat="44.939184" lon="6.440441">
        <time>1970-01-01T00:00:00+00:00</time>
        <ele>3093.0</ele>
      </trkpt>
      <trkpt lat="44.938853" lon="6.439532">
        <time>1970-01-01T00:00:00+00:00</time>
        <ele>3111.0</ele>
      </trkpt>
      <trkpt lat="44.938653" lon="6.439484">
        <time>1970-01-01T00:00:00+00:00</time>
        <ele>3117.0</ele>
      </trkpt>
      <trkpt lat="44.938329" lon="6.439732">
        <time>1970-01-01T00:00:00+00:00</time>
        <ele>3127.0</ele>
      </trkpt>
      <trkpt lat="44.938053" lon="6.440059">
        <time>1970-01-01T00:00:00+00:00</time>
        <ele>3138.0</ele>
      </trkpt>
      <trkpt lat="44.937916" lon="6.439893">
        <time>1970-01-01T00:00:00+00:00</time>
        <ele>3147.0</ele>
      </trkpt>
      <trkpt lat="44.937839" lon="6.439661">
        <time>1970-01-01T00:00:00+00:00</time>
        <ele>3153.0</ele>
      </trkpt>
      <trkpt lat="44.93767" lon="6.439782">
        <time>1970-01-01T00:00:00+00:00</time>
        <ele>3163.0</ele>
      </trkpt>
      <trkpt lat="44.937582" lon="6.440015">
        <time>1970-01-01T00:00:00+00:00</time>
        <ele>3169.0</ele>
      </trkpt>
      <trkpt lat="44.937381" lon="6.441011">
        <time>1970-01-01T00:00:00+00:00</time>
        <ele>3189.0</ele>
      </trkpt>
      <trkpt lat="44.937214" lon="6.441109">
        <time>1970-01-01T00:00:00+00:00</time>
        <ele>3207.0</ele>
      </trkpt>
      <trkpt lat="44.93713" lon="6.441875">
        <time>1970-01-01T00:00:00+00:00</time>
        <ele>3230.0</ele>
      </trkpt>
      <trkpt lat="44.937196" lon="6.442112">
        <time>1970-01-01T00:00:00+00:00</time>
        <ele>3229.0</ele>
      </trkpt>
      <trkpt lat="44.936926" lon="6.442454">
        <time>1970-01-01T00:00:00+00:00</time>
        <ele>3267.0</ele>
      </trkpt>
      <trkpt lat="44.936756" lon="6.442368">
        <time>1970-01-01T00:00:00+00:00</time>
        <ele>3279.0</ele>
      </trkpt>
      <trkpt lat="44.936587" lon="6.442472">
        <time>1970-01-01T00:00:00+00:00</time>
        <ele>3294.0</ele>
      </trkpt>
      <trkpt lat="44.936426" lon="6.442346">
        <time>1970-01-01T00:00:00+00:00</time>
        <ele>3302.0</ele>
      </trkpt>
      <trkpt lat="44.936295" lon="6.442522">
        <time>1970-01-01T00:00:00+00:00</time>
        <ele>3311.0</ele>
      </trkpt>
      <trkpt lat="44.936179" lon="6.443007">
        <time>1970-01-01T00:00:00+00:00</time>
        <ele>3317.0</ele>
      </trkpt>
      <trkpt lat="44.936029" lon="6.44315">
        <time>1970-01-01T00:00:00+00:00</time>
        <ele>3321.0</ele>
      </trkpt>
      <trkpt lat="44.935185" lon="6.443626">
        <time>1970-01-01T00:00:00+00:00</time>
        <ele>3331.0</ele>
      </trkpt>
      <trkpt lat="44.933733" lon="6.443974">
        <time>1970-01-01T00:00:00+00:00</time>
        <ele>3327.0</ele>
      </trkpt>
      <trkpt lat="44.933068" lon="6.444404">
        <time>1970-01-01T00:00:00+00:00</time>
        <ele>3330.0</ele>
      </trkpt>
      <trkpt lat="44.932944" lon="6.444595">
        <time>1970-01-01T00:00:00+00:00</time>
        <ele>3334.0</ele>
      </trkpt>
      <trkpt lat="44.93238" lon="6.445928">
        <time>1970-01-01T00:00:00+00:00</time>
        <ele>3343.0</ele>
      </trkpt>
      <trkpt lat="44.931685" lon="6.446779">
        <time>1970-01-01T00:00:00+00:00</time>
        <ele>3352.0</ele>
      </trkpt>
      <trkpt lat="44.931222" lon="6.447197">
        <time>1970-01-01T00:00:00+00:00</time>
        <ele>3357.0</ele>
      </trkpt>
      <trkpt lat="44.931057" lon="6.447311">
        <time>1970-01-01T00:00:00+00:00</time>
        <ele>3358.0</ele>
      </trkpt>
      <trkpt lat="44.930336" lon="6.44752">
        <time>1970-01-01T00:00:00+00:00</time>
        <ele>3379.0</ele>
      </trkpt>
      <trkpt lat="44.929989" lon="6.447697">
        <time>1970-01-01T00:00:00+00:00</time>
        <ele>3389.0</ele>
      </trkpt>
      <trkpt lat="44.929869" lon="6.447508">
        <time>1970-01-01T00:00:00+00:00</time>
        <ele>3396.0</ele>
      </trkpt>
      <trkpt lat="44.930017" lon="6.446759">
        <time>1970-01-01T00:00:00+00:00</time>
        <ele>3405.0</ele>
      </trkpt>
      <trkpt lat="44.929891" lon="6.446575">
        <time>1970-01-01T00:00:00+00:00</time>
        <ele>3413.0</ele>
      </trkpt>
      <trkpt lat="44.92903" lon="6.446977">
        <time>1970-01-01T00:00:00+00:00</time>
        <ele>3431.0</ele>
      </trkpt>
      <trkpt lat="44.928955" lon="6.446744">
        <time>1970-01-01T00:00:00+00:00</time>
        <ele>3439.0</ele>
      </trkpt>
      <trkpt lat="44.928952" lon="6.446476">
        <time>1970-01-01T00:00:00+00:00</time>
        <ele>3446.0</ele>
      </trkpt>
      <trkpt lat="44.928782" lon="6.446359">
        <time>1970-01-01T00:00:00+00:00</time>
        <ele>3455.0</ele>
      </trkpt>
      <trkpt lat="44.928429" lon="6.446476">
        <time>1970-01-01T00:00:00+00:00</time>
        <ele>3464.0</ele>
      </trkpt>
      <trkpt lat="44.928253" lon="6.446424">
        <time>1970-01-01T00:00:00+00:00</time>
        <ele>3465.0</ele>
      </trkpt>
      <trkpt lat="44.928364" lon="6.446659">
        <time>1970-01-01T00:00:00+00:00</time>
        <ele>3462.0</ele>
      </trkpt>
      <trkpt lat="44.9284" lon="6.447246">
        <time>1970-01-01T00:00:00+00:00</time>
        <ele>3443.0</ele>
      </trkpt>
      <trkpt lat="44.92818" lon="6.447695">
        <time>1970-01-01T00:00:00+00:00</time>
        <ele>3438.0</ele>
      </trkpt>
      <trkpt lat="44.9282" lon="6.448265">
        <time>1970-01-01T00:00:00+00:00</time>
        <ele>3424.0</ele>
      </trkpt>
      <trkpt lat="44.92805" lon="6.448429">
        <time>1970-01-01T00:00:00+00:00</time>
        <ele>3421.0</ele>
      </trkpt>
      <trkpt lat="44.928083" lon="6.448683">
        <time>1970-01-01T00:00:00+00:00</time>
        <ele>3413.0</ele>
      </trkpt>
      <trkpt lat="44.927968" lon="6.449204">
        <time>1970-01-01T00:00:00+00:00</time>
        <ele>3402.0</ele>
      </trkpt>
      <trkpt lat="44.928045" lon="6.449474">
        <time>1970-01-01T00:00:00+00:00</time>
        <ele>3396.0</ele>
      </trkpt>
      <trkpt lat="44.927942" lon="6.449691">
        <time>1970-01-01T00:00:00+00:00</time>
        <ele>3392.0</ele>
      </trkpt>
      <trkpt lat="44.928033" lon="6.450236">
        <time>1970-01-01T00:00:00+00:00</time>
        <ele>3382.0</ele>
      </trkpt>
      <trkpt lat="44.927915" lon="6.450503">
        <time>1970-01-01T00:00:00+00:00</time>
        <ele>3377.0</ele>
      </trkpt>
      <trkpt lat="44.928002" lon="6.450756">
        <time>1970-01-01T00:00:00+00:00</time>
        <ele>3371.0</ele>
      </trkpt>
      <trkpt lat="44.927576" lon="6.45128">
        <time>1970-01-01T00:00:00+00:00</time>
        <ele>3359.0</ele>
      </trkpt>
      <trkpt lat="44.926793" lon="6.451647">
        <time>1970-01-01T00:00:00+00:00</time>
        <ele>3343.0</ele>
      </trkpt>
      <trkpt lat="44.926787" lon="6.451913">
        <time>1970-01-01T00:00:00+00:00</time>
        <ele>3336.0</ele>
      </trkpt>
      <trkpt lat="44.926904" lon="6.452423">
        <time>1970-01-01T00:00:00+00:00</time>
        <ele>3325.0</ele>
      </trkpt>
      <trkpt lat="44.926922" lon="6.452736">
        <time>1970-01-01T00:00:00+00:00</time>
        <ele>3319.0</ele>
      </trkpt>
      <trkpt lat="44.927115" lon="6.452863">
        <time>1970-01-01T00:00:00+00:00</time>
        <ele>3315.0</ele>
      </trkpt>
      <trkpt lat="44.927027" lon="6.453114">
        <time>1970-01-01T00:00:00+00:00</time>
        <ele>3311.0</ele>
      </trkpt>
      <trkpt lat="44.927198" lon="6.453223">
        <time>1970-01-01T00:00:00+00:00</time>
        <ele>3307.0</ele>
      </trkpt>
      <trkpt lat="44.927119" lon="6.453475">
        <time>1970-01-01T00:00:00+00:00</time>
        <ele>3302.0</ele>
      </trkpt>
      <trkpt lat="44.927376" lon="6.453889">
        <time>1970-01-01T00:00:00+00:00</time>
        <ele>3289.0</ele>
      </trkpt>
      <trkpt lat="44.927255" lon="6.454088">
        <time>1970-01-01T00:00:00+00:00</time>
        <ele>3285.0</ele>
      </trkpt>
      <trkpt lat="44.927441" lon="6.454531">
        <time>1970-01-01T00:00:00+00:00</time>
        <ele>3268.0</ele>
      </trkpt>
      <trkpt lat="44.927617" lon="6.454658">
        <time>1970-01-01T00:00:00+00:00</time>
        <ele>3259.0</ele>
      </trkpt>
      <trkpt lat="44.927949" lon="6.455355">
        <time>1970-01-01T00:00:00+00:00</time>
        <ele>3234.0</ele>
      </trkpt>
      <trkpt lat="44.928086" lon="6.455526">
        <time>1970-01-01T00:00:00+00:00</time>
        <ele>3229.0</ele>
      </trkpt>
      <trkpt lat="44.928624" lon="6.455827">
        <time>1970-01-01T00:00:00+00:00</time>
        <ele>3221.0</ele>
      </trkpt>
      <trkpt lat="44.928669" lon="6.456362">
        <time>1970-01-01T00:00:00+00:00</time>
        <ele>3212.0</ele>
      </trkpt>
      <trkpt lat="44.928764" lon="6.456579">
        <time>1970-01-01T00:00:00+00:00</time>
        <ele>3206.0</ele>
      </trkpt>
      <trkpt lat="44.928752" lon="6.456835">
        <time>1970-01-01T00:00:00+00:00</time>
        <ele>3200.0</ele>
      </trkpt>
      <trkpt lat="44.92885" lon="6.457048">
        <time>1970-01-01T00:00:00+00:00</time>
        <ele>3192.0</ele>
      </trkpt>
      <trkpt lat="44.929169" lon="6.457352">
        <time>1970-01-01T00:00:00+00:00</time>
        <ele>3178.0</ele>
      </trkpt>
      <trkpt lat="44.929251" lon="6.45758">
        <time>1970-01-01T00:00:00+00:00</time>
        <ele>3168.0</ele>
      </trkpt>
      <trkpt lat="44.929202" lon="6.457836">
        <time>1970-01-01T00:00:00+00:00</time>
        <ele>3163.0</ele>
      </trkpt>
      <trkpt lat="44.929296" lon="6.458082">
        <time>1970-01-01T00:00:00+00:00</time>
        <ele>3156.0</ele>
      </trkpt>
      <trkpt lat="44.929639" lon="6.458316">
        <time>1970-01-01T00:00:00+00:00</time>
        <ele>3141.0</ele>
      </trkpt>
      <trkpt lat="44.929793" lon="6.458492">
        <time>1970-01-01T00:00:00+00:00</time>
        <ele>3132.0</ele>
      </trkpt>
      <trkpt lat="44.929871" lon="6.458731">
        <time>1970-01-01T00:00:00+00:00</time>
        <ele>3124.0</ele>
      </trkpt>
      <trkpt lat="44.929753" lon="6.459241">
        <time>1970-01-01T00:00:00+00:00</time>
        <ele>3119.0</ele>
      </trkpt>
      <trkpt lat="44.929807" lon="6.459493">
        <time>1970-01-01T00:00:00+00:00</time>
        <ele>3112.0</ele>
      </trkpt>
      <trkpt lat="44.929987" lon="6.459496">
        <time>1970-01-01T00:00:00+00:00</time>
        <ele>3103.0</ele>
      </trkpt>
      <trkpt lat="44.930112" lon="6.459689">
        <time>1970-01-01T00:00:00+00:00</time>
        <ele>3091.0</ele>
      </trkpt>
      <trkpt lat="44.93016" lon="6.459962">
        <time>1970-01-01T00:00:00+00:00</time>
        <ele>3082.0</ele>
      </trkpt>
      <trkpt lat="44.930481" lon="6.460248">
        <time>1970-01-01T00:00:00+00:00</time>
        <ele>3052.0</ele>
      </trkpt>
      <trkpt lat="44.930512" lon="6.460503">
        <time>1970-01-01T00:00:00+00:00</time>
        <ele>3042.0</ele>
      </trkpt>
      <trkpt lat="44.930702" lon="6.460534">
        <time>1970-01-01T00:00:00+00:00</time>
        <ele>3030.0</ele>
      </trkpt>
      <trkpt lat="44.930875" lon="6.460672">
        <time>1970-01-01T00:00:00+00:00</time>
        <ele>3017.0</ele>
      </trkpt>
      <trkpt lat="44.930764" lon="6.460874">
        <time>1970-01-01T00:00:00+00:00</time>
        <ele>3018.0</ele>
      </trkpt>
      <trkpt lat="44.931083" lon="6.461226">
        <time>1970-01-01T00:00:00+00:00</time>
        <ele>2993.0</ele>
      </trkpt>
      <trkpt lat="44.930883" lon="6.461738">
        <time>1970-01-01T00:00:00+00:00</time>
        <ele>2989.0</ele>
      </trkpt>
      <trkpt lat="44.931177" lon="6.462102">
        <time>1970-01-01T00:00:00+00:00</time>
        <ele>2966.0</ele>
      </trkpt>
      <trkpt lat="44.931647" lon="6.46251">
        <time>1970-01-01T00:00:00+00:00</time>
        <ele>2936.0</ele>
      </trkpt>
      <trkpt lat="44.931837" lon="6.462521">
        <time>1970-01-01T00:00:00+00:00</time>
        <ele>2927.0</ele>
      </trkpt>
      <trkpt lat="44.932027" lon="6.46248">
        <time>1970-01-01T00:00:00+00:00</time>
        <ele>2919.0</ele>
      </trkpt>
      <trkpt lat="44.932338" lon="6.462091">
        <time>1970-01-01T00:00:00+00:00</time>
        <ele>2910.0</ele>
      </trkpt>
      <trkpt lat="44.93304" lon="6.461605">
        <time>1970-01-01T00:00:00+00:00</time>
        <ele>2899.0</ele>
      </trkpt>
      <trkpt lat="44.93403" lon="6.461566">
        <time>1970-01-01T00:00:00+00:00</time>
        <ele>2876.0</ele>
      </trkpt>
      <trkpt lat="44.934568" lon="6.461903">
        <time>1970-01-01T00:00:00+00:00</time>
        <ele>2860.0</ele>
      </trkpt>
      <trkpt lat="44.934752" lon="6.462439">
        <time>1970-01-01T00:00:00+00:00</time>
        <ele>2835.0</ele>
      </trkpt>
      <trkpt lat="44.935092" lon="6.462793">
        <time>1970-01-01T00:00:00+00:00</time>
        <ele>2828.0</ele>
      </trkpt>
      <trkpt lat="44.935319" lon="6.46329">
        <time>1970-01-01T00:00:00+00:00</time>
        <ele>2820.0</ele>
      </trkpt>
      <trkpt lat="44.935407" lon="6.463564">
        <time>1970-01-01T00:00:00+00:00</time>
        <ele>2815.0</ele>
      </trkpt>
      <trkpt lat="44.935258" lon="6.463834">
        <time>1970-01-01T00:00:00+00:00</time>
        <ele>2804.0</ele>
      </trkpt>
      <trkpt lat="44.935349" lon="6.464093">
        <time>1970-01-01T00:00:00+00:00</time>
        <ele>2806.0</ele>
      </trkpt>
      <trkpt lat="44.935477" lon="6.464873">
        <time>1970-01-01T00:00:00+00:00</time>
        <ele>2790.0</ele>
      </trkpt>
      <trkpt lat="44.935675" lon="6.465338">
        <time>1970-01-01T00:00:00+00:00</time>
        <ele>2786.0</ele>
      </trkpt>
      <trkpt lat="44.935819" lon="6.465489">
        <time>1970-01-01T00:00:00+00:00</time>
        <ele>2787.0</ele>
      </trkpt>
      <trkpt lat="44.936003" lon="6.465436">
        <time>1970-01-01T00:00:00+00:00</time>
        <ele>2789.0</ele>
      </trkpt>
      <trkpt lat="44.936135" lon="6.46561">
        <time>1970-01-01T00:00:00+00:00</time>
        <ele>2783.0</ele>
      </trkpt>
      <trkpt lat="44.93619" lon="6.465858">
        <time>1970-01-01T00:00:00+00:00</time>
        <ele>2772.0</ele>
      </trkpt>
      <trkpt lat="44.936245" lon="6.466392">
        <time>1970-01-01T00:00:00+00:00</time>
        <ele>2750.0</ele>
      </trkpt>
      <trkpt lat="44.936342" lon="6.46662">
        <time>1970-01-01T00:00:00+00:00</time>
        <ele>2743.0</ele>
      </trkpt>
      <trkpt lat="44.936329" lon="6.46718">
        <time>1970-01-01T00:00:00+00:00</time>
        <ele>2723.0</ele>
      </trkpt>
      <trkpt lat="44.936381" lon="6.467444">
        <time>1970-01-01T00:00:00+00:00</time>
        <ele>2714.0</ele>
      </trkpt>
      <trkpt lat="44.936278" lon="6.467716">
        <time>1970-01-01T00:00:00+00:00</time>
        <ele>2706.0</ele>
      </trkpt>
      <trkpt lat="44.936273" lon="6.467995">
        <time>1970-01-01T00:00:00+00:00</time>
        <ele>2698.0</ele>
      </trkpt>
      <trkpt lat="44.936139" lon="6.468205">
        <time>1970-01-01T00:00:00+00:00</time>
        <ele>2693.0</ele>
      </trkpt>
      <trkpt lat="44.936343" lon="6.468283">
        <time>1970-01-01T00:00:00+00:00</time>
        <ele>2688.0</ele>
      </trkpt>
      <trkpt lat="44.936281" lon="6.468559">
        <time>1970-01-01T00:00:00+00:00</time>
        <ele>2678.0</ele>
      </trkpt>
      <trkpt lat="44.936434" lon="6.468786">
        <time>1970-01-01T00:00:00+00:00</time>
        <ele>2669.0</ele>
      </trkpt>
      <trkpt lat="44.936341" lon="6.469038">
        <time>1970-01-01T00:00:00+00:00</time>
        <ele>2656.0</ele>
      </trkpt>
      <trkpt lat="44.936679" lon="6.469645">
        <time>1970-01-01T00:00:00+00:00</time>
        <ele>2636.0</ele>
      </trkpt>
      <trkpt lat="44.936619" lon="6.470156">
        <time>1970-01-01T00:00:00+00:00</time>
        <ele>2625.0</ele>
      </trkpt>
      <trkpt lat="44.936776" lon="6.470293">
        <time>1970-01-01T00:00:00+00:00</time>
        <ele>2622.0</ele>
      </trkpt>
      <trkpt lat="44.936977" lon="6.471052">
        <time>1970-01-01T00:00:00+00:00</time>
        <ele>2601.0</ele>
      </trkpt>
      <trkpt lat="44.936923" lon="6.471315">
        <time>1970-01-01T00:00:00+00:00</time>
        <ele>2595.0</ele>
      </trkpt>
      <trkpt lat="44.936712" lon="6.471805">
        <time>1970-01-01T00:00:00+00:00</time>
        <ele>2588.0</ele>
      </trkpt>
      <trkpt lat="44.936899" lon="6.471832">
        <time>1970-01-01T00:00:00+00:00</time>
        <ele>2585.0</ele>
      </trkpt>
      <trkpt lat="44.936827" lon="6.472079">
        <time>1970-01-01T00:00:00+00:00</time>
        <ele>2584.0</ele>
      </trkpt>
      <trkpt lat="44.93683" lon="6.472947">
        <time>1970-01-01T00:00:00+00:00</time>
        <ele>2577.0</ele>
      </trkpt>
      <trkpt lat="44.936693" lon="6.474013">
        <time>1970-01-01T00:00:00+00:00</time>
        <ele>2568.0</ele>
      </trkpt>
      <trkpt lat="44.936855" lon="6.474509">
        <time>1970-01-01T00:00:00+00:00</time>
        <ele>2561.0</ele>
      </trkpt>
      <trkpt lat="44.936912" lon="6.475086">
        <time>1970-01-01T00:00:00+00:00</time>
        <ele>2562.0</ele>
      </trkpt>
      <trkpt lat="44.936853" lon="6.475615">
        <time>1970-01-01T00:00:00+00:00</time>
        <ele>2564.0</ele>
      </trkpt>
      <trkpt lat="44.9369" lon="6.47639">
        <time>1970-01-01T00:00:00+00:00</time>
        <ele>2574.0</ele>
      </trkpt>
      <trkpt lat="44.936996" lon="6.47689">
        <time>1970-01-01T00:00:00+00:00</time>
        <ele>2589.0</ele>
      </trkpt>
      <trkpt lat="44.936756" lon="6.478115">
        <time>1970-01-01T00:00:00+00:00</time>
        <ele>2616.0</ele>
      </trkpt>
      <trkpt lat="44.936834" lon="6.478345">
        <time>1970-01-01T00:00:00+00:00</time>
        <ele>2631.0</ele>
      </trkpt>
      <trkpt lat="44.937163" lon="6.47815">
        <time>1970-01-01T00:00:00+00:00</time>
        <ele>2639.0</ele>
      </trkpt>
      <trkpt lat="44.937402" lon="6.477768">
        <time>1970-01-01T00:00:00+00:00</time>
        <ele>2649.0</ele>
      </trkpt>
      <trkpt lat="44.93758" lon="6.477845">
        <time>1970-01-01T00:00:00+00:00</time>
        <ele>2666.0</ele>
      </trkpt>
      <trkpt lat="44.937761" lon="6.477817">
        <time>1970-01-01T00:00:00+00:00</time>
        <ele>2672.0</ele>
      </trkpt>
      <trkpt lat="44.937789" lon="6.477563">
        <time>1970-01-01T00:00:00+00:00</time>
        <ele>2673.0</ele>
      </trkpt>
      <trkpt lat="44.937982" lon="6.477546">
        <time>1970-01-01T00:00:00+00:00</time>
        <ele>2666.0</ele>
      </trkpt>
      <trkpt lat="44.938133" lon="6.477691">
        <time>1970-01-01T00:00:00+00:00</time>
        <ele>2648.0</ele>
      </trkpt>
      <trkpt lat="44.938335" lon="6.478124">
        <time>1970-01-01T00:00:00+00:00</time>
        <ele>2611.0</ele>
      </trkpt>
      <trkpt lat="44.938496" lon="6.478253">
        <time>1970-01-01T00:00:00+00:00</time>
        <ele>2592.0</ele>
      </trkpt>
      <trkpt lat="44.938592" lon="6.478749">
        <time>1970-01-01T00:00:00+00:00</time>
        <ele>2568.0</ele>
      </trkpt>
      <trkpt lat="44.938697" lon="6.478959">
        <time>1970-01-01T00:00:00+00:00</time>
        <ele>2554.0</ele>
      </trkpt>
      <trkpt lat="44.938644" lon="6.479206">
        <time>1970-01-01T00:00:00+00:00</time>
        <ele>2551.0</ele>
      </trkpt>
      <trkpt lat="44.938717" lon="6.479445">
        <time>1970-01-01T00:00:00+00:00</time>
        <ele>2543.0</ele>
      </trkpt>
      <trkpt lat="44.938872" lon="6.47959">
        <time>1970-01-01T00:00:00+00:00</time>
        <ele>2529.0</ele>
      </trkpt>
      <trkpt lat="44.938874" lon="6.479869">
        <time>1970-01-01T00:00:00+00:00</time>
        <ele>2525.0</ele>
      </trkpt>
      <trkpt lat="44.939611" lon="6.480089">
        <time>1970-01-01T00:00:00+00:00</time>
        <ele>2465.0</ele>
      </trkpt>
      <trkpt lat="44.939977" lon="6.480091">
        <time>1970-01-01T00:00:00+00:00</time>
        <ele>2439.0</ele>
      </trkpt>
      <trkpt lat="44.940121" lon="6.479926">
        <time>1970-01-01T00:00:00+00:00</time>
        <ele>2430.0</ele>
      </trkpt>
      <trkpt lat="44.940494" lon="6.479874">
        <time>1970-01-01T00:00:00+00:00</time>
        <ele>2404.0</ele>
      </trkpt>
      <trkpt lat="44.940754" lon="6.480244">
        <time>1970-01-01T00:00:00+00:00</time>
        <ele>2385.0</ele>
      </trkpt>
      <trkpt lat="44.941117" lon="6.480311">
        <time>1970-01-01T00:00:00+00:00</time>
        <ele>2364.0</ele>
      </trkpt>
      <trkpt lat="44.941164" lon="6.480571">
        <time>1970-01-01T00:00:00+00:00</time>
        <ele>2360.0</ele>
      </trkpt>
      <trkpt lat="44.941338" lon="6.480471">
        <time>1970-01-01T00:00:00+00:00</time>
        <ele>2349.0</ele>
      </trkpt>
      <trkpt lat="44.941422" lon="6.480225">
        <time>1970-01-01T00:00:00+00:00</time>
        <ele>2343.0</ele>
      </trkpt>
      <trkpt lat="44.941667" lon="6.48098">
        <time>1970-01-01T00:00:00+00:00</time>
        <ele>2329.0</ele>
      </trkpt>
      <trkpt lat="44.941839" lon="6.481794">
        <time>1970-01-01T00:00:00+00:00</time>
        <ele>2324.0</ele>
      </trkpt>
      <trkpt lat="44.941983" lon="6.481306">
        <time>1970-01-01T00:00:00+00:00</time>
        <ele>2313.0</ele>
      </trkpt>
      <trkpt lat="44.942128" lon="6.48156">
        <time>1970-01-01T00:00:00+00:00</time>
        <ele>2311.0</ele>
      </trkpt>
      <trkpt lat="44.942256" lon="6.481035">
        <time>1970-01-01T00:00:00+00:00</time>
        <ele>2298.0</ele>
      </trkpt>
      <trkpt lat="44.942413" lon="6.481197">
        <time>1970-01-01T00:00:00+00:00</time>
        <ele>2295.0</ele>
      </trkpt>
      <trkpt lat="44.942442" lon="6.480088">
        <time>1970-01-01T00:00:00+00:00</time>
        <ele>2283.0</ele>
      </trkpt>
      <trkpt lat="44.942626" lon="6.480036">
        <time>1970-01-01T00:00:00+00:00</time>
        <ele>2274.0</ele>
      </trkpt>
      <trkpt lat="44.942536" lon="6.479472">
        <time>1970-01-01T00:00:00+00:00</time>
        <ele>2269.0</ele>
      </trkpt>
      <trkpt lat="44.94232" lon="6.478717">
        <time>1970-01-01T00:00:00+00:00</time>
        <ele>2262.0</ele>
      </trkpt>
      <trkpt lat="44.942497" lon="6.478619">
        <time>1970-01-01T00:00:00+00:00</time>
        <ele>2249.0</ele>
      </trkpt>
      <trkpt lat="44.942618" lon="6.478127">
        <time>1970-01-01T00:00:00+00:00</time>
        <ele>2241.0</ele>
      </trkpt>
      <trkpt lat="44.942784" lon="6.478227">
        <time>1970-01-01T00:00:00+00:00</time>
        <ele>2231.0</ele>
      </trkpt>
      <trkpt lat="44.94299" lon="6.477763">
        <time>1970-01-01T00:00:00+00:00</time>
        <ele>2224.0</ele>
      </trkpt>
      <trkpt lat="44.943118" lon="6.477263">
        <time>1970-01-01T00:00:00+00:00</time>
        <ele>2220.0</ele>
      </trkpt>
      <trkpt lat="44.943118" lon="6.476727">
        <time>1970-01-01T00:00:00+00:00</time>
        <ele>2215.0</ele>
      </trkpt>
      <trkpt lat="44.943226" lon="6.475653">
        <time>1970-01-01T00:00:00+00:00</time>
        <ele>2206.0</ele>
      </trkpt>
      <trkpt lat="44.943589" lon="6.475601">
        <time>1970-01-01T00:00:00+00:00</time>
        <ele>2178.0</ele>
      </trkpt>
      <trkpt lat="44.94369" lon="6.475349">
        <time>1970-01-01T00:00:00+00:00</time>
        <ele>2170.0</ele>
      </trkpt>
      <trkpt lat="44.943741" lon="6.474781">
        <time>1970-01-01T00:00:00+00:00</time>
        <ele>2162.0</ele>
      </trkpt>
      <trkpt lat="44.944071" lon="6.474136">
        <time>1970-01-01T00:00:00+00:00</time>
        <ele>2150.0</ele>
      </trkpt>
      <trkpt lat="44.944391" lon="6.473841">
        <time>1970-01-01T00:00:00+00:00</time>
        <ele>2135.0</ele>
      </trkpt>
      <trkpt lat="44.944601" lon="6.473844">
        <time>1970-01-01T00:00:00+00:00</time>
        <ele>2121.0</ele>
      </trkpt>
      <trkpt lat="44.94477" lon="6.473954">
        <time>1970-01-01T00:00:00+00:00</time>
        <ele>2111.0</ele>
      </trkpt>
      <trkpt lat="44.944902" lon="6.47418">
        <time>1970-01-01T00:00:00+00:00</time>
        <ele>2103.0</ele>
      </trkpt>
      <trkpt lat="44.944996" lon="6.473963">
        <time>1970-01-01T00:00:00+00:00</time>
        <ele>2099.0</ele>
      </trkpt>
      <trkpt lat="44.945102" lon="6.474182">
        <time>1970-01-01T00:00:00+00:00</time>
        <ele>2092.0</ele>
      </trkpt>
      <trkpt lat="44.945787" lon="6.472871">
        <time>1970-01-01T00:00:00+00:00</time>
        <ele>2066.0</ele>
      </trkpt>
      <trkpt lat="44.945988" lon="6.472783">
        <time>1970-01-01T00:00:00+00:00</time>
        <ele>2064.0</ele>
      </trkpt>
      <trkpt lat="44.946616" lon="6.47299">
        <time>1970-01-01T00:00:00+00:00</time>
        <ele>2056.0</ele>
      </trkpt>
      <trkpt lat="44.946835" lon="6.472977">
        <time>1970-01-01T00:00:00+00:00</time>
        <ele>2054.0</ele>
      </trkpt>
      <trkpt lat="44.946952" lon="6.473174">
        <time>1970-01-01T00:00:00+00:00</time>
        <ele>2050.0</ele>
      </trkpt>
      <trkpt lat="44.947136" lon="6.473173">
        <time>1970-01-01T00:00:00+00:00</time>
        <ele>2047.0</ele>
      </trkpt>
      <trkpt lat="44.947304" lon="6.473058">
        <time>1970-01-01T00:00:00+00:00</time>
        <ele>2044.0</ele>
      </trkpt>
      <trkpt lat="44.947399" lon="6.473612">
        <time>1970-01-01T00:00:00+00:00</time>
        <ele>2038.0</ele>
      </trkpt>
      <trkpt lat="44.947785" lon="6.47368">
        <time>1970-01-01T00:00:00+00:00</time>
        <ele>2029.0</ele>
      </trkpt>
      <trkpt lat="44.948107" lon="6.473348">
        <time>1970-01-01T00:00:00+00:00</time>
        <ele>2024.0</ele>
      </trkpt>
      <trkpt lat="44.948325" lon="6.473347">
        <time>1970-01-01T00:00:00+00:00</time>
        <ele>2018.0</ele>
      </trkpt>
      <trkpt lat="44.948414" lon="6.473934">
        <time>1970-01-01T00:00:00+00:00</time>
        <ele>2012.0</ele>
      </trkpt>
      <trkpt lat="44.948631" lon="6.473973">
        <time>1970-01-01T00:00:00+00:00</time>
        <ele>2006.0</ele>
      </trkpt>
      <trkpt lat="44.948892" lon="6.474453">
        <time>1970-01-01T00:00:00+00:00</time>
        <ele>1999.0</ele>
      </trkpt>
      <trkpt lat="44.949104" lon="6.474367">
        <time>1970-01-01T00:00:00+00:00</time>
        <ele>1994.0</ele>
      </trkpt>
      <trkpt lat="44.949297" lon="6.474445">
        <time>1970-01-01T00:00:00+00:00</time>
        <ele>1990.0</ele>
      </trkpt>
      <trkpt lat="44.949326" lon="6.474749">
        <time>1970-01-01T00:00:00+00:00</time>
        <ele>1987.0</ele>
      </trkpt>
      <trkpt lat="44.949664" lon="6.475068">
        <time>1970-01-01T00:00:00+00:00</time>
        <ele>1978.0</ele>
      </trkpt>
      <trkpt lat="44.949758" lon="6.475306">
        <time>1970-01-01T00:00:00+00:00</time>
        <ele>1975.0</ele>
      </trkpt>
      <trkpt lat="44.949924" lon="6.475416">
        <time>1970-01-01T00:00:00+00:00</time>
        <ele>1971.0</ele>
      </trkpt>
      <trkpt lat="44.949931" lon="6.475711">
        <time>1970-01-01T00:00:00+00:00</time>
        <ele>1969.0</ele>
      </trkpt>
      <trkpt lat="44.950109" lon="6.475875">
        <time>1970-01-01T00:00:00+00:00</time>
        <ele>1964.0</ele>
      </trkpt>
      <trkpt lat="44.950309" lon="6.475903">
        <time>1970-01-01T00:00:00+00:00</time>
        <ele>1960.0</ele>
      </trkpt>
      <trkpt lat="44.950384" lon="6.476193">
        <time>1970-01-01T00:00:00+00:00</time>
        <ele>1956.0</ele>
      </trkpt>
      <trkpt lat="44.950656" lon="6.476582">
        <time>1970-01-01T00:00:00+00:00</time>
        <ele>1949.0</ele>
      </trkpt>
      <trkpt lat="44.951078" lon="6.477574">
        <time>1970-01-01T00:00:00+00:00</time>
        <ele>1933.0</ele>
      </trkpt>
      <trkpt lat="44.951408" lon="6.477951">
        <time>1970-01-01T00:00:00+00:00</time>
        <ele>1926.0</ele>
      </trkpt>
      <trkpt lat="44.951596" lon="6.477939">
        <time>1970-01-01T00:00:00+00:00</time>
        <ele>1922.0</ele>
      </trkpt>
      <trkpt lat="44.951625" lon="6.478227">
        <time>1970-01-01T00:00:00+00:00</time>
        <ele>1921.0</ele>
      </trkpt>
      <trkpt lat="44.951771" lon="6.478415">
        <time>1970-01-01T00:00:00+00:00</time>
        <ele>1918.0</ele>
      </trkpt>
      <trkpt lat="44.951975" lon="6.478606">
        <time>1970-01-01T00:00:00+00:00</time>
        <ele>1914.0</ele>
      </trkpt>
      <trkpt lat="44.952184" lon="6.478543">
        <time>1970-01-01T00:00:00+00:00</time>
        <ele>1910.0</ele>
      </trkpt>
      <trkpt lat="44.952715" lon="6.478928">
        <time>1970-01-01T00:00:00+00:00</time>
        <ele>1899.0</ele>
      </trkpt>
      <trkpt lat="44.952929" lon="6.478965">
        <time>1970-01-01T00:00:00+00:00</time>
        <ele>1894.0</ele>
      </trkpt>
      <trkpt lat="44.953263" lon="6.479265">
        <time>1970-01-01T00:00:00+00:00</time>
        <ele>1888.0</ele>
      </trkpt>
      <trkpt lat="44.953463" lon="6.479236">
        <time>1970-01-01T00:00:00+00:00</time>
        <ele>1885.0</ele>
      </trkpt>
      <trkpt lat="44.953614" lon="6.479416">
        <time>1970-01-01T00:00:00+00:00</time>
        <ele>1882.0</ele>
      </trkpt>
      <trkpt lat="44.954154" lon="6.479665">
        <time>1970-01-01T00:00:00+00:00</time>
        <ele>1874.0</ele>
      </trkpt>
      <trkpt lat="44.954516" lon="6.480002">
        <time>1970-01-01T00:00:00+00:00</time>
        <ele>1867.0</ele>
      </trkpt>
      <trkpt lat="44.95494" lon="6.480637">
        <time>1970-01-01T00:00:00+00:00</time>
        <ele>1862.0</ele>
      </trkpt>
      <trkpt lat="44.955544" lon="6.480857">
        <time>1970-01-01T00:00:00+00:00</time>
        <ele>1851.0</ele>
      </trkpt>
      <trkpt lat="44.956042" lon="6.481281">
        <time>1970-01-01T00:00:00+00:00</time>
        <ele>1842.0</ele>
      </trkpt>
      <trkpt lat="44.956188" lon="6.481466">
        <time>1970-01-01T00:00:00+00:00</time>
        <ele>1838.0</ele>
      </trkpt>
      <trkpt lat="44.95641" lon="6.481939">
        <time>1970-01-01T00:00:00+00:00</time>
        <ele>1833.0</ele>
      </trkpt>
      <trkpt lat="44.956579" lon="6.482057">
        <time>1970-01-01T00:00:00+00:00</time>
        <ele>1828.0</ele>
      </trkpt>
      <trkpt lat="44.956886" lon="6.482442">
        <time>1970-01-01T00:00:00+00:00</time>
        <ele>1822.0</ele>
      </trkpt>
      <trkpt lat="44.957078" lon="6.483258">
        <time>1970-01-01T00:00:00+00:00</time>
        <ele>1816.0</ele>
      </trkpt>
      <trkpt lat="44.957369" lon="6.483955">
        <time>1970-01-01T00:00:00+00:00</time>
        <ele>1807.0</ele>
      </trkpt>
      <trkpt lat="44.957876" lon="6.484725">
        <time>1970-01-01T00:00:00+00:00</time>
        <ele>1789.0</ele>
      </trkpt>
      <trkpt lat="44.959001" lon="6.48596">
        <time>1970-01-01T00:00:00+00:00</time>
        <ele>1762.0</ele>
      </trkpt>
      <trkpt lat="44.959361" lon="6.48693">
        <time>1970-01-01T00:00:00+00:00</time>
        <ele>1752.0</ele>
      </trkpt>
      <trkpt lat="44.959689" lon="6.487316">
        <time>1970-01-01T00:00:00+00:00</time>
        <ele>1744.0</ele>
      </trkpt>
      <trkpt lat="44.960131" lon="6.488176">
        <time>1970-01-01T00:00:00+00:00</time>
        <ele>1739.0</ele>
      </trkpt>
      <trkpt lat="44.960869" lon="6.488983">
        <time>1970-01-01T00:00:00+00:00</time>
        <ele>1728.0</ele>
      </trkpt>
      <trkpt lat="44.961234" lon="6.489211">
        <time>1970-01-01T00:00:00+00:00</time>
        <ele>1716.0</ele>
      </trkpt>
      <trkpt lat="44.961707" lon="6.489741">
        <time>1970-01-01T00:00:00+00:00</time>
        <ele>1712.0</ele>
      </trkpt>
      <trkpt lat="44.962105" lon="6.48991">
        <time>1970-01-01T00:00:00+00:00</time>
        <ele>1703.0</ele>
      </trkpt>
      <trkpt lat="44.962541" lon="6.490405">
        <time>1970-01-01T00:00:00+00:00</time>
        <ele>1702.0</ele>
      </trkpt>
      <trkpt lat="44.962706" lon="6.490515">
        <time>1970-01-01T00:00:00+00:00</time>
        <ele>1699.0</ele>
      </trkpt>
      <trkpt lat="44.963945" lon="6.49097">
        <time>1970-01-01T00:00:00+00:00</time>
        <ele>1676.0</ele>
      </trkpt>
      <trkpt lat="44.964294" lon="6.490827">
        <time>1970-01-01T00:00:00+00:00</time>
        <ele>1664.0</ele>
      </trkpt>
      <trkpt lat="44.964837" lon="6.490968">
        <time>1970-01-01T00:00:00+00:00</time>
        <ele>1661.0</ele>
      </trkpt>
      <trkpt lat="44.96554" lon="6.49136">
        <time>1970-01-01T00:00:00+00:00</time>
        <ele>1656.0</ele>
      </trkpt>
      <trkpt lat="44.9657" lon="6.491481">
        <time>1970-01-01T00:00:00+00:00</time>
        <ele>1653.0</ele>
      </trkpt>
      <trkpt lat="44.965808" lon="6.491693">
        <time>1970-01-01T00:00:00+00:00</time>
        <ele>1654.0</ele>
      </trkpt>
      <trkpt lat="44.965951" lon="6.49217">
        <time>1970-01-01T00:00:00+00:00</time>
        <ele>1653.0</ele>
      </trkpt>
      <trkpt lat="44.966452" lon="6.492492">
        <time>1970-01-01T00:00:00+00:00</time>
        <ele>1643.0</ele>
      </trkpt>
      <trkpt lat="44.966584" lon="6.492994">
        <time>1970-01-01T00:00:00+00:00</time>
        <ele>1642.0</ele>
      </trkpt>
      <trkpt lat="44.966736" lon="6.493147">
        <time>1970-01-01T00:00:00+00:00</time>
        <ele>1640.0</ele>
      </trkpt>
      <trkpt lat="44.966908" lon="6.493228">
        <time>1970-01-01T00:00:00+00:00</time>
        <ele>1635.0</ele>
      </trkpt>
      <trkpt lat="44.967281" lon="6.493213">
        <time>1970-01-01T00:00:00+00:00</time>
        <ele>1624.0</ele>
      </trkpt>
      <trkpt lat="44.967823" lon="6.492983">
        <time>1970-01-01T00:00:00+00:00</time>
        <ele>1604.0</ele>
      </trkpt>
      <trkpt lat="44.968003" lon="6.492976">
        <time>1970-01-01T00:00:00+00:00</time>
        <ele>1598.0</ele>
      </trkpt>
      <trkpt lat="44.968385" lon="6.493128">
        <time>1970-01-01T00:00:00+00:00</time>
        <ele>1588.0</ele>
      </trkpt>
      <trkpt lat="44.968753" lon="6.493072">
        <time>1970-01-01T00:00:00+00:00</time>
        <ele>1583.0</ele>
      </trkpt>
      <trkpt lat="44.968914" lon="6.493208">
        <time>1970-01-01T00:00:00+00:00</time>
        <ele>1579.0</ele>
      </trkpt>
      <trkpt lat="44.969284" lon="6.493313">
        <time>1970-01-01T00:00:00+00:00</time>
        <ele>1576.0</ele>
      </trkpt>
      <trkpt lat="44.969605" lon="6.493587">
        <time>1970-01-01T00:00:00+00:00</time>
        <ele>1569.0</ele>
      </trkpt>
      <trkpt lat="44.969865" lon="6.493952">
        <time>1970-01-01T00:00:00+00:00</time>
        <ele>1562.0</ele>
      </trkpt>
      <trkpt lat="44.96989" lon="6.49421">
        <time>1970-01-01T00:00:00+00:00</time>
        <ele>1562.0</ele>
      </trkpt>
      <trkpt lat="44.970186" lon="6.494545">
        <time>1970-01-01T00:00:00+00:00</time>
        <ele>1553.0</ele>
      </trkpt>
      <trkpt lat="44.970259" lon="6.495052">
        <time>1970-01-01T00:00:00+00:00</time>
        <ele>1549.0</ele>
      </trkpt>
      <trkpt lat="44.970406" lon="6.495226">
        <time>1970-01-01T00:00:00+00:00</time>
        <ele>1544.0</ele>
      </trkpt>
      <trkpt lat="44.970546" lon="6.495708">
        <time>1970-01-01T00:00:00+00:00</time>
        <ele>1537.0</ele>
      </trkpt>
      <trkpt lat="44.970517" lon="6.496484">
        <time>1970-01-01T00:00:00+00:00</time>
        <ele>1529.0</ele>
      </trkpt>
      <trkpt lat="44.970607" lon="6.496711">
        <time>1970-01-01T00:00:00+00:00</time>
        <ele>1525.0</ele>
      </trkpt>
      <trkpt lat="44.970691" lon="6.497215">
        <time>1970-01-01T00:00:00+00:00</time>
        <ele>1521.0</ele>
      </trkpt>
      <trkpt lat="44.97065" lon="6.497486">
        <time>1970-01-01T00:00:00+00:00</time>
        <ele>1521.0</ele>
      </trkpt>
      <trkpt lat="44.970747" lon="6.497985">
        <time>1970-01-01T00:00:00+00:00</time>
        <ele>1517.0</ele>
      </trkpt>
      <trkpt lat="44.970656" lon="6.499039">
        <time>1970-01-01T00:00:00+00:00</time>
        <ele>1514.0</ele>
      </trkpt>
    </trkseg>
  </trk>
</gpx>
